Camp Pendleton, CA

10:15 AM PDT on July 28, 2017 (GMT -0700)
Camp Pendleton Marine Corps Air Station

Weather History for KNFG - December, 2012

Change the Weather History Date:

Wednesday, December 19, 2012

  Actual Average Record
Temperature  
Mean Temperature 46 °F -  
Max Temperature 61 °F 66 °F 82 °F (2004)
Min Temperature 32 °F 35 °F 31 °F (2006)
Degree Days  
Heating Degree Days 18    
Moisture  
Dew Point 27 °F    
Average Humidity 56    
Maximum Humidity 82    
Minimum Humidity 21    
Precipitation  
Precipitation 0.00 in - - ()
Sea Level Pressure  
Sea Level Pressure 30.18 in    
Wind  
Wind Speed 3 mph (NNE)    
Max Wind Speed 6 mph    
Max Gust Speed -    
Visibility 10 miles    
Events      
Averages and records for this station are not official NWS values.
T = Trace of Precipitation, MM = Missing Value Source: NWS Daily Summary

Daily Weather History Graph

Daily Weather History Graph

Search for Another Location

Airport or City:

Trip Planner

Search our weather history database for the weather conditions in past years. The results will help you decide how hot, cold, wet, or windy it might be!

Date:

Astronomy

Dec. 19, 2012 Rise Set
Actual Time 6:48 AM PST 4:45 PM PST
Civil Twilight 6:20 AM PST 5:12 PM PST
Nautical Twilight 5:49 AM PST 5:43 PM PST
Astronomical Twilight 5:19 AM PST 6:14 PM PST
Moon 11:19 AM PST (12/19) 11:56 PM PST (12/19)
Length of Visible Light 10h 51m
Length of Day
9h 56m
Waxing Crescent, 46% of the Moon is Illuminated
Dec 19
Waxing Crescent
Dec 19
First Quarter
Dec 28
Full
Jan 4
Last Quarter
Jan 11
New

Hourly Weather History & Observations

Time (PST) Temp. Windchill Dew Point Humidity Pressure Visibility Wind Dir Wind Speed Gust Speed Precip Events Conditions
12:54 AM 48.0 °F - 25.0 °F 41% 30.03 in 10.0 mi NW 4.6 mph - N/A   Clear
1:54 AM 43.0 °F - 28.0 °F 56% 30.05 in 10.0 mi Calm Calm - N/A   Clear
2:54 AM 37.9 °F 34.4 °F 28.9 °F 70% 30.06 in 10.0 mi NE 4.6 mph - N/A   Clear
3:54 AM 35.1 °F - 28.0 °F 76% 30.11 in 10.0 mi Calm Calm - N/A   Clear
4:54 AM 32.0 °F 28.7 °F 27.0 °F 82% 30.12 in 10.0 mi WNW 3.5 mph - N/A   Clear
5:54 AM 33.1 °F 30.0 °F 27.0 °F 78% 30.15 in 10.0 mi East 3.5 mph - N/A   Clear
6:54 AM 32.0 °F - 26.1 °F 79% 30.18 in 10.0 mi Calm Calm - N/A   Clear
7:54 AM 37.0 °F 34.5 °F 30.0 °F 76% 30.19 in 10.0 mi NE 3.5 mph - N/A   Clear
8:54 AM 42.1 °F 39.2 °F 32.0 °F 67% 30.21 in 10.0 mi South 4.6 mph - N/A   Clear
9:54 AM 52.0 °F - 30.0 °F 43% 30.21 in 10.0 mi ENE 5.8 mph - N/A   Clear
10:54 AM 57.9 °F - 21.9 °F 25% 30.20 in 10.0 mi Variable 5.8 mph - N/A   Clear
11:54 AM 59.0 °F - 19.0 °F 21% 30.18 in 10.0 mi NNE 4.6 mph - N/A   Clear
12:54 PM 60.1 °F - 21.9 °F 23% 30.18 in 10.0 mi SE 4.6 mph - N/A   Clear
1:54 PM 61.0 °F - 23.0 °F 23% 30.17 in 10.0 mi Calm Calm - N/A   Clear
2:54 PM 59.0 °F - 28.9 °F 32% 30.17 in 10.0 mi WSW 5.8 mph - N/A   Clear
3:54 PM 57.9 °F - 28.9 °F 33% 30.18 in 10.0 mi WSW 3.5 mph - N/A   Clear
4:54 PM 53.1 °F - 30.9 °F 43% 30.19 in 10.0 mi Calm Calm - N/A   Clear
5:54 PM 46.9 °F - 33.1 °F 59% 30.20 in 10.0 mi Calm Calm - N/A   Clear
6:54 PM 44.1 °F 42.5 °F 33.1 °F 65% 30.22 in 10.0 mi NNE 3.5 mph - N/A   Clear
7:54 PM 39.9 °F 37.8 °F 30.9 °F 70% 30.24 in 10.0 mi North 3.5 mph - N/A   Clear
8:54 PM 36.0 °F - 28.0 °F 73% 30.25 in 10.0 mi Calm Calm - N/A   Clear
9:54 PM 35.1 °F - 26.1 °F 70% 30.26 in 10.0 mi Calm Calm - N/A   Clear
10:54 PM 36.0 °F - 25.0 °F 64% 30.26 in 10.0 mi Calm Calm - N/A   Clear
11:54 PM 35.1 °F 32.2 °F 24.1 °F 64% 30.24 in 10.0 mi Variable 3.5 mph - N/A   Clear